This is the latest recevied weather packets stored in our database for station/object AI5ON. If no packets are shown the sender has not sent any weather packets the latest 10 day(s).
| Time | Temp. | Humidity | Pressure | Rain* | Wind** | Luminosity | Snow |
|---|---|---|---|---|---|---|---|
| 1788017746 | 31.67° C | 66% | 1017.7 hPa | 0 mm | - | 643 W/m² | - |
| 1788017443 | 31.67° C | 69% | 1017.8 hPa | 0 mm | - | 626 W/m² | - |
| 1788017140 | 31.67° C | 67% | 1017.7 hPa | 0 mm | - | 613 W/m² | - |
| 1788016839 | 31.67° C | 69% | 1017.6 hPa | 0 mm | - | 598 W/m² | - |
| 1788016537 | 31.67° C | 68% | 1017.7 hPa | 0 mm | - | 577 W/m² | - |
| 1788016232 | 31.11° C | 70% | 1017.8 hPa | 0 mm | - | 558 W/m² | - |
| 1788015931 | 31.11° C | 71% | 1017.7 hPa | 0 mm | - | 544 W/m² | - |
| 1788015627 | 30.56° C | 72% | 1017.6 hPa | 0 mm | - | 524 W/m² | - |
| 1788015326 | 30.56° C | 73% | 1017.5 hPa | 0 mm | - | 506 W/m² | - |
| 1788015026 | 31.11° C | 71% | 1017.4 hPa | 0 mm | - | 495 W/m² | - |
| 1788014725 | 30.56° C | 72% | 1017.6 hPa | 0 mm | - | 476 W/m² | - |
| 1788014421 | 30.56° C | 72% | 1017.6 hPa | 0 mm | - | 457 W/m² | - |
| 1788014116 | 30.56° C | 73% | 1017.5 hPa | 0 mm | - | 426 W/m² | - |
| 1788013815 | 30° C | 76% | 1017.4 hPa | 0 mm | - | 421 W/m² | - |
| 1788013514 | 30° C | 74% | 1017.3 hPa | 0 mm | - | 402 W/m² | - |
| 1788013215 | 30° C | 75% | 1017.4 hPa | 0 mm | - | 383 W/m² | - |
| 1788012909 | 30° C | 76% | 1017.4 hPa | 0 mm | - | 359 W/m² | - |
| 1788012603 | 30° C | 76% | 1017.3 hPa | 0 mm | - | 342 W/m² | - |
| 1788012298 | 30° C | 76% | 1017.4 hPa | 0 mm | - | 319 W/m² | - |
| 1788011997 | 30° C | 76% | 1017.3 hPa | 0 mm | - | 302 W/m² | - |
| 1788011696 | 29.44° C | 77% | 1017.3 hPa | 0 mm | - | 287 W/m² | - |
| 1788011392 | 28.89° C | 80% | 1017.2 hPa | 0 mm | - | 268 W/m² | - |
| 1788011091 | 28.89° C | 78% | 1017.4 hPa | 0 mm | - | 249 W/m² | - |
| 1788010787 | 28.89° C | 78% | 1017.3 hPa | 0 mm | - | 230 W/m² | - |
| 1788010485 | 28.33° C | 82% | 1017.3 hPa | 0 mm | - | 213 W/m² | - |
* Rain latest hour (hover to see other rain measurements)
** Current wind speed in m/s (hover to see current wind gust speed)